Find Starlink 3336

NORAD ID: 50818 Int'l Des: 2022-001 Owner: SPXS Country: US Constellation: starlink operational
LEOCIRCULAR

Live Position

Loading 3D Globe...

About Starlink 3336

Description loading...

Upcoming Passes

Passes for default location (London). Set your location on the main map for personalized predictions.

Altitude History

Loading altitude history...

Two-Line Element Set

1 50818U 22001R 26122.15109214 .00001247 00000-0 96419-4 0 9990
2 50818 53.2168 289.1155 0002937 43.2683 316.8539 15.08848670238473
Epoch: May 2, 2026 • Age: 6 hours

Current Status

Altitude 538.2 km
Velocity 7.60 km/s
Sub-Earth Point 8.75°N, 76.34°W
Launch Date Jan 6, 2022
Age 4.3 years
Type internet

Technical Details

Classification Payload
Mass 297.00 kg
Dry Mass 275.00 kg
Total Mass 297.00 kg
Length 0.20 m
Diameter 2.80 m
Span 9.00 m
Shape Box + pan
Manufacturer SPXS
Bus Type Starlink
Phase Status In Orbit
Owner/State SPXS/US

Most Searched